Location: Altenst�hlen
(53.5567°N, 8.9425°E)
Time: 15:51:34
(UTC+00:00)

Cosmos 1833 - Pass Details

Date: 23 October 2019
Orbit: 835 x 863 km, 70.9° (Epoch: 22 November)

Event Time Altitude Azimuth Distance (km) Brightness Sun altitude
Rises 18:52:16 0° 327° (NNW) 3,399 8.0 -24.5°
Reaches altitude 10° 18:54:45 10° 331° (NNW) 2,463 7.2 -24.9°
Maximum altitude 19:00:21 64° 53° (NE) 933 4.2 -25.7°
Enters shadow 19:00:25 64° 57° (ENE) 933 4.1 -25.7°
